Probability
23 26 23 23 19 10 6 3 0 0 0 3 6 13 10 6 13 19 42 81 87 87 71 58 61 68 71 52 55 55 52 52 48 58 52 42 39 32 19 13 10 6 10
19 16 13 13 13 3 0 0 0 0 3 3 3 3 6 10 10 19 26 61 90 87 84 68 68 58 68 65 58 52 48 45 52 55 52 48 48 48 32 10 13 10 3
16 16 13 13 6 0 0 0 0 0 3 3 6 6 10 10 13 13 16 39 61 74 81 81 77 68 55 65 52 55 61 58 55 52 48 48 45 42 35 23 19 19 10
16 16 13 10 0 3 3 3 3 3 3 0 3 0 10 6 6 13 13 13 29 42 65 81 87 84 71 58 61 58 65 68 58 52 42 42 52 48 45 35 23 23 10
26 16 16 13 0 3 3 3 3 3 3 3 3 3 3 6 6 10 10 10 10 19 23 35 77 87 74 65 71 68 68 68 61 55 42 29 26 35 32 29 23 26 16
23 16 13 6 3 0 0 0 3 0 3 3 0 0 0 0 3 3 6 10 6 10 13 16 35 48 68 74 77 77 77 68 58 55 45 35 26 32 29 26 19 19 16
19 19 16 3 3 0 3 0 0 0 0 0 0 0 0 0 0 0 0 3 3 6 13 13 16 16 26 42 71 77 81 71 74 68 65 58 52 48 35 26 19 16 10
19 19 13 10 10 3 3 3 3 0 0 0 0 0 0 0 0 0 0 0 0 0 3 3 6 10 6 10 10 35 68 71 71 77 74 71 65 61 52 42 29 23 10
19 19 16 10 10 3 3 3 3 0 0 0 0 0 0 0 0 0 0 0 0 0 0 0 0 3 3 3 6 0 29 55 61 68 71 71 61 52 48 39 32 29 19
16 16 16 10 10 6 3 3 3 3 3 0 0 0 0 0 0 0 0 0 0 0 0 0 0 0 3 3 0 0 0 16 29 48 68 77 65 48 42 35 29 26 29
13 13 19 10 10 6 3 3 3 3 0 0 0 0 0 0 0 0 0 0 0 0 0 0 0 0 3 0 0 0 0 0 3 16 35 65 68 58 48 42 42 32 32
13 13 16 10 6 10 6 3 3 3 3 3 3 0 0 0 0 0 0 0 0 0 0 0 0 0 6 3 0 0 0 0 0 0 3 19 35 42 52 42 39 23 23
16 13 6 6 6 0 0 3 0 3 3 3 3 3 3 0 0 0 0 0 0 0 0 0 0 0 0 3 3 0 0 0 0 0 0 0 3 3 19 29 32 26 23
13 10 10 6 6 3 3 3 3 3 3 0 3 3 3 3 3 0 0 0 0 0 0 0 0 0 0 3 0 0 0 0 0 0 0 0 0 0 0 0 3 3 3
6 3 3 6 6 6 6 3 0 0 0 0 0 0 0 3 3 3 0 0 0 0 0 0 0 0 0 0 0 0 0 0 0 0 0 0 0 0 0 0 0 0 0
6 3 3 3 3 3 3 3 3 0 0 0 0 0 0 0 0 3 3 0 0 0 0 0 0 0 0 0 0 0 0 0 0 0 0 0 0 0 0 0 0 0 0
10 13 6 3 3 3 3 3 3 3 3 0 0 0 0 0 0 0 0 0 0 0 0 0 0 0 0 0 0 0 0 0 0 0 0 0 0 0 0 0 0 0 0
10 6 10 10 10 10 3 3 3 3 0 0 0 0 0 0 0 0 0 0 0 0 0 0 0 0 0 0 0 0 0 0 0 0 0 0 0 0 0 0 0 0 0
3 3 3 3 3 6 6 6 3 3 3 3 3 0 0 0 0 0 0 0 0 0 0 0 0 0 0 0 0 0 0 0 0 0 0 0 0 0 0 0 0 0 0
10 6 3 3 3 3 3 3 3 3 3 0 3 0 0 0 0 0 0 0 0 0 0 0 0 0 0 0 0 0 0 0 0 0 0 0 0 0 0 0 0 0 0
6 6 6 3 3 3 3 3 3 3 3 3 0 0 0 0 0 0 0 0 0 0 0 0 0 0 0 0 0 0 0 0 0 0 0 0 0 0 0 0 0 0 0
6 6 6 6 3 3 3 0 0 0 0 0 0 0 0 0 0 0 0 0 0 0 0 0 0 0 0 0 0 0 0 0 0 0 0 0 0 0 0 0 0 0 0
6 6 6 6 6 0 0 0 0 0 0 0 0 0 0 0 0 0 0 0 0 0 0 0 0 0 0 0 0 0 0 0 0 0 0 0 0 0 0 0 0 0 0
6 6 6 3 3 0 0 0 0 0 0 0 0 0 0 0 0 0 0 0 0 0 0 0 0 0 0 0 0 0 0 0 0 0 0 0 0 0 0 0 0 0 0
3 3 3 3 3 3 0 0 0 0 0 0 0 0 0 0 0 0 0 0 0 0 0 0 0 0 0 0 0 0 0 0 0 0 0 0 0 0 0 0 0 0 0
3 3 3 3 3 3 0 0 0 0 0 0 0 0 0 0 0 0 0 0 0 0 0 0 0 0 0 0 0 0 0 0 0 0 0 0 0 0 0 0 0 0 0
Height
5904 5905 5906 5906 5907 5907 5908 5908 5908 5909 5909 5910 5910 5910 5910 5910 5910 5910 5910 5910 5910 5910 5910 5910 5910 5910 5910 5910 5910 5909 5909 5909 5909 5909 5908 5908 5908 5908 5908 5908 5908 5908 5908
5904 5905 5906 5906 5907 5907 5908 5908 5909 5909 5910 5910 5910 5910 5911 5911 5910 5911 5911 5910 5910 5910 5910 5910 5910 5910 5910 5910 5910 5910 5909 5909 5909 5909 5908 5908 5908 5908 5908 5908 5908 5908 5908
5904 5905 5905 5906 5906 5907 5908 5908 5909 5909 5910 5910 5910 5911 5911 5911 5911 5911 5911 5911 5910 5910 5910 5910 5910 5910 5910 5910 5909 5909 5909 5909 5909 5908 5908 5908 5908 5908 5908 5908 5907 5907 5907
5903 5904 5905 5905 5906 5906 5907 5908 5908 5909 5910 5910 5910 5910 5911 5911 5911 5911 5911 5911 5910 5910 5910 5910 5910 5910 5910 5909 5909 5909 5909 5909 5908 5908 5908 5907 5907 5907 5907 5907 5907 5906 5906
5902 5903 5904 5904 5905 5906 5907 5907 5908 5909 5909 5909 5910 5910 5910 5910 5910 5910 5910 5910 5910 5910 5910 5910 5910 5910 5910 5909 5909 5909 5908 5908 5908 5907 5907 5907 5906 5906 5906 5906 5906 5905 5905
5901 5901 5902 5903 5904 5905 5906 5906 5907 5908 5908 5909 5909 5910 5910 5910 5910 5910 5910 5910 5910 5910 5910 5910 5909 5909 5909 5909 5908 5908 5907 5907 5907 5906 5906 5906 5905 5905 5905 5905 5904 5904 5904
5899 5900 5901 5902 5903 5904 5905 5905 5906 5907 5907 5908 5908 5909 5909 5909 5909 5909 5909 5909 5909 5909 5909 5909 5909 5909 5908 5908 5907 5907 5906 5906 5905 5905 5905 5905 5904 5904 5904 5903 5903 5903 5902
5898 5898 5899 5900 5901 5902 5903 5904 5905 5905 5906 5906 5907 5907 5908 5908 5908 5908 5908 5908 5908 5907 5907 5908 5908 5907 5907 5907 5906 5906 5905 5904 5904 5904 5903 5903 5903 5903 5902 5902 5901 5901 5901
5896 5897 5897 5898 5899 5900 5901 5902 5903 5903 5904 5905 5905 5906 5906 5906 5906 5907 5906 5906 5906 5906 5906 5906 5906 5906 5906 5905 5905 5904 5903 5903 5902 5902 5902 5901 5901 5900 5900 5900 5899 5899 5898
5893 5894 5895 5896 5897 5898 5898 5899 5900 5901 5902 5902 5903 5903 5904 5904 5904 5904 5905 5905 5904 5904 5904 5904 5904 5904 5903 5903 5903 5902 5901 5901 5901 5900 5899 5899 5899 5898 5898 5897 5897 5896 5896
5891 5892 5893 5894 5894 5895 5896 5897 5897 5898 5899 5899 5900 5900 5901 5901 5901 5902 5902 5902 5902 5902 5902 5901 5901 5901 5901 5900 5900 5899 5899 5898 5898 5897 5897 5896 5896 5895 5895 5894 5894 5893 5893
5888 5889 5890 5891 5892 5893 5893 5894 5895 5895 5896 5896 5896 5897 5897 5898 5898 5898 5899 5898 5898 5898 5898 5898 5898 5898 5898 5897 5897 5896 5896 5895 5894 5894 5893 5893 5892 5892 5891 5890 5890 5889 5888
5886 5886 5887 5888 5889 5890 5890 5891 5891 5892 5892 5893 5893 5893 5894 5894 5895 5895 5895 5895 5895 5895 5895 5895 5894 5894 5894 5893 5893 5892 5892 5891 5890 5890 5889 5889 5888 5887 5887 5886 5885 5885 5884
5883 5883 5884 5885 5886 5886 5887 5887 5888 5888 5888 5889 5889 5889 5890 5890 5890 5891 5891 5891 5891 5891 5891 5890 5890 5889 5889 5888 5888 5887 5887 5886 5886 5885 5884 5884 5883 5883 5882 5881 5880 5879 5878
5880 5880 5881 5881 5882 5883 5883 5883 5884 5884 5884 5885 5885 5885 5885 5886 5886 5886 5886 5886 5887 5886 5886 5886 5885 5884 5883 5883 5883 5882 5882 5881 5880 5879 5879 5878 5877 5876 5876 5875 5874 5873 5872
5877 5877 5877 5878 5879 5879 5879 5879 5880 5880 5880 5880 5880 5880 5881 5881 5880 5881 5881 5881 5881 5881 5881 5880 5879 5878 5878 5877 5877 5876 5876 5875 5874 5873 5872 5872 5871 5870 5869 5868 5867 5866 5865
5873 5873 5874 5874 5875 5875 5875 5875 5875 5875 5875 5875 5875 5875 5875 5875 5875 5875 5875 5875 5875 5875 5875 5875 5873 5873 5872 5871 5870 5870 5869 5868 5867 5866 5865 5864 5863 5862 5861 5860 5859 5858 5857
5869 5870 5870 5871 5871 5871 5871 5870 5870 5870 5870 5870 5870 5870 5870 5869 5869 5869 5869 5869 5868 5868 5868 5868 5867 5866 5865 5864 5863 5863 5862 5861 5860 5859 5858 5857 5855 5854 5853 5852 5851 5850 5848
5866 5866 5866 5867 5867 5867 5866 5866 5866 5865 5865 5865 5865 5864 5864 5864 5864 5863 5863 5862 5862 5861 5861 5861 5860 5859 5858 5857 5856 5855 5854 5853 5852 5851 5849 5848 5846 5845 5844 5843 5841 5840 5838
5862 5863 5863 5863 5863 5862 5862 5862 5861 5861 5860 5860 5860 5859 5859 5858 5858 5857 5857 5856 5855 5855 5854 5854 5853 5852 5851 5850 5848 5847 5846 5845 5843 5842 5840 5839 5837 5835 5834 5832 5831 5829 5828
5858 5859 5859 5858 5858 5858 5858 5857 5856 5856 5856 5855 5855 5854 5854 5853 5852 5851 5851 5850 5849 5848 5847 5846 5845 5844 5843 5842 5840 5839 5837 5836 5834 5833 5831 5829 5827 5826 5824 5822 5820 5818 5817
5854 5855 5855 5854 5854 5854 5853 5853 5852 5852 5851 5850 5850 5849 5848 5848 5847 5845 5844 5843 5842 5841 5840 5839 5837 5836 5835 5834 5832 5830 5828 5827 5825 5823 5821 5819 5817 5815 5813 5811 5809 5807 5805
5850 5850 5850 5850 5849 5849 5849 5848 5847 5847 5846 5845 5844 5844 5843 5842 5840 5839 5837 5836 5834 5833 5832 5830 5829 5828 5827 5825 5823 5821 5819 5818 5816 5813 5811 5808 5806 5804 5802 5799 5797 5795 5793
5846 5846 5845 5845 5845 5844 5844 5843 5843 5842 5841 5840 5839 5838 5837 5835 5834 5832 5831 5829 5827 5825 5823 5821 5820 5819 5818 5816 5814 5812 5810 5808 5806 5803 5801 5798 5796 5793 5790 5788 5785 5783 5780
5842 5842 5841 5840 5840 5840 5839 5838 5837 5836 5835 5834 5833 5832 5831 5829 5827 5826 5824 5822 5819 5818 5815 5813 5811 5810 5808 5807 5805 5803 5800 5798 5795 5793 5790 5787 5785 5782 5779 5776 5773 5770 5768
5838 5838 5837 5836 5836 5835 5834 5833 5832 5831 5830 5829 5828 5826 5824 5823 5821 5819 5817 5815 5812 5810 5808 5806 5803 5801 5799 5797 5795 5793 5790 5788 5785 5782 5779 5776 5773 5770 5767 5763 5760 5757 5754
Wind_Speed
1 1 1 1 1 1 1 1 1 1 1 1 1 1 2 2 2 2 1 1 1 1 1 2 2 1 1 0 0 1 2 2 2 2 2 2 1 1 1 1 2 1 1
2 2 2 1 2 2 2 2 1 1 1 1 0 1 1 2 2 2 1 2 2 2 2 2 2 1 1 1 1 2 2 2 3 3 2 2 2 2 2 2 2 3 3
3 3 3 3 2 2 2 2 2 1 1 1 1 0 1 1 1 1 1 2 2 2 2 2 2 1 1 1 2 2 2 3 3 3 3 3 3 3 3 3 4 4 4
4 5 5 4 4 3 3 3 2 2 2 2 2 1 1 1 1 2 2 2 2 2 2 2 2 2 2 2 3 3 3 4 4 4 4 4 4 4 4 4 5 5 5
6 6 7 6 5 5 5 4 3 3 3 3 3 3 3 3 3 3 3 3 3 3 3 3 3 3 4 4 4 4 4 4 4 4 4 4 4 5 5 5 5 5 6
8 8 8 7 7 7 7 6 5 4 4 4 4 4 4 4 4 4 4 4 4 4 4 4 4 4 4 5 5 5 5 5 5 5 5 5 5 5 6 6 6 6 7
9 9 9 9 9 8 8 8 7 6 6 6 6 6 6 6 5 5 5 6 5 5 5 6 5 5 6 6 6 6 7 7 7 7 7 7 7 7 7 8 8 8 8
10 10 10 9 9 10 10 9 9 9 8 8 8 8 8 8 7 7 7 7 7 7 7 7 7 7 8 8 8 8 8 8 8 8 8 8 9 9 9 9 9 9 10
10 10 10 10 10 10 10 11 11 11 10 10 10 10 10 10 10 9 9 9 9 9 9 9 9 9 10 10 10 9 9 9 10 10 10 10 10 10 11 11 11 11 11
10 10 10 11 11 11 11 11 12 12 13 13 13 12 12 12 12 12 11 11 11 11 11 11 11 11 11 11 11 11 11 11 12 12 12 12 12 12 12 13 13 13 13
10 10 10 11 11 12 12 12 13 13 14 14 14 14 14 14 14 14 14 13 13 13 13 13 13 13 13 13 13 13 13 13 14 15 15 15 15 15 15 15 15 16 16
11 11 11 12 12 13 13 13 13 14 14 15 16 16 16 16 16 16 16 16 16 16 15 15 15 16 16 16 16 16 16 16 17 17 17 17 17 17 17 17 18 18 18
11 12 12 13 13 14 15 15 14 15 16 16 17 18 18 18 18 18 18 18 17 17 17 17 17 18 18 18 18 18 18 18 19 19 19 20 19 19 20 20 21 21 21
13 13 14 14 14 14 14 15 15 15 16 17 18 19 19 19 20 20 20 20 19 19 19 19 19 19 20 20 20 20 20 20 21 21 21 21 22 23 23 23 23 24 24
13 13 14 15 16 16 16 16 16 16 16 17 18 18 19 20 21 21 21 21 22 21 21 21 21 22 22 22 23 23 23 23 24 24 24 24 24 25 25 25 26 26 26
13 14 14 15 15 16 17 17 18 18 18 19 19 20 20 20 21 22 23 23 23 23 22 24 24 25 26 25 25 25 25 26 26 26 26 27 27 28 28 28 29 29 28
14 14 15 15 16 16 17 18 19 19 20 20 20 20 21 22 22 22 23 23 24 24 24 24 26 26 27 27 27 27 27 28 28 29 29 30 30 30 31 31 32 31 32
14 15 15 16 16 17 18 19 19 19 19 19 20 20 21 21 22 22 23 24 25 26 26 26 26 27 27 28 28 29 28 29 30 31 32 33 33 33 34 34 34 35 35
14 14 15 16 17 18 18 19 19 19 19 20 20 19 21 21 22 23 24 24 26 26 26 26 27 28 28 29 29 29 30 31 32 33 34 35 35 36 36 37 38 38 38
15 15 15 16 17 18 18 18 19 19 19 19 19 19 20 22 23 24 24 25 26 26 26 26 27 28 29 30 30 31 31 32 34 35 35 36 37 38 39 39 40 40 40
15 15 16 16 17 17 17 17 18 18 18 19 19 20 20 21 22 23 25 26 26 27 27 28 29 30 30 31 31 32 33 34 35 36 37 37 38 39 40 40 40 40 40
15 16 16 16 17 17 17 17 18 18 19 19 20 21 21 23 24 25 26 27 27 28 28 29 30 30 31 31 32 34 34 35 36 37 38 39 39 40 41 41 40 40 41
15 16 16 17 17 18 19 19 19 19 20 21 21 22 23 24 25 26 26 26 27 28 29 31 31 32 32 32 34 35 36 36 36 37 38 39 39 40 40 40 40 41 42
16 16 17 18 19 19 20 20 20 21 21 21 22 22 22 23 24 25 26 27 28 29 29 30 31 32 33 33 34 35 36 37 37 38 38 39 40 40 41 42 42 43 43
17 17 18 19 19 20 20 21 21 21 21 21 22 23 24 24 24 25 26 27 28 29 30 30 31 32 32 33 34 35 36 37 38 39 40 41 41 43 43 44 44 45 45
18 18 19 19 19 19 19 19 20 21 21 22 23 24 24 24 25 26 26 27 28 29 30 31 31 32 33 35 35 36 38 39 40 41 42 42 43 44 45 46 47 48 48
Wind_Direction
182 165 173 172 170 135 141 152 152 158 139 111 68 46 33 39 48 52 35 10 3 359 357 4 358 339 324 268 312 10 17 15 14 17 8 358 352 334 334 339 336 326 316
216 214 212 229 233 215 197 188 178 181 182 171 51 32 18 14 29 37 19 0 347 337 335 344 342 329 307 288 292 313 333 335 337 339 331 315 312 313 308 309 313 311 300
225 230 231 240 245 231 218 208 207 202 210 213 233 261 356 2 2 359 359 347 332 329 326 323 325 309 288 291 301 305 305 308 317 318 316 308 299 299 296 296 294 293 292
234 231 232 236 238 232 222 222 214 220 227 232 223 234 276 305 317 325 322 319 318 315 310 310 304 295 293 298 308 313 308 305 309 309 305 299 294 291 292 291 289 287 286
240 237 233 235 236 237 236 232 231 241 242 244 244 250 268 278 281 291 296 297 301 301 302 304 299 295 296 301 302 305 302 296 296 296 295 294 293 290 288 288 287 284 283
245 245 241 237 236 237 239 238 239 244 246 247 248 253 266 275 279 281 281 282 286 289 295 294 291 296 297 298 300 300 298 293 286 284 285 287 289 290 288 287 284 282 280
246 246 244 240 240 239 240 242 244 245 246 250 253 257 264 268 274 279 280 279 277 278 283 284 285 288 292 294 295 295 294 289 285 280 279 282 284 285 285 284 282 281 280
248 247 242 242 246 246 246 245 243 245 249 252 255 258 262 263 265 272 275 276 277 276 275 277 277 282 286 288 291 292 292 289 286 283 281 282 283 283 284 282 280 281 281
251 249 249 246 247 248 251 251 246 246 251 255 255 258 258 258 259 265 270 275 278 278 275 273 272 276 279 282 285 287 289 286 283 280 277 278 278 280 281 279 277 279 280
253 250 249 245 248 250 252 254 250 250 253 257 257 257 258 259 260 264 268 272 277 278 275 275 275 274 276 278 281 283 284 283 281 279 277 277 277 279 281 281 279 278 279
250 251 252 251 249 250 252 255 256 255 255 256 256 257 259 260 260 262 266 270 273 275 276 276 275 274 275 277 280 282 282 282 280 278 277 277 280 279 279 280 280 279 279
250 250 253 252 251 253 254 256 259 258 257 258 257 257 258 260 260 261 264 267 271 273 274 277 276 274 276 277 278 280 281 281 279 279 277 277 279 281 280 279 279 279 278
249 250 253 254 256 257 257 260 262 262 259 261 260 258 259 260 261 262 264 267 269 272 273 274 275 274 275 277 278 279 279 280 277 278 278 276 277 279 280 281 281 280 279
254 254 255 257 257 259 260 262 265 267 263 265 264 262 261 261 262 263 265 266 268 270 273 274 274 274 275 275 276 278 278 278 276 276 277 276 277 278 280 281 281 281 279
260 261 261 261 260 261 264 266 265 267 268 266 265 265 264 262 262 263 265 267 268 269 272 272 272 274 275 275 276 276 277 276 277 276 277 277 277 278 278 279 280 281 279
263 262 262 261 262 264 266 266 266 267 268 267 264 265 265 263 264 264 266 268 268 268 269 270 270 271 274 275 276 276 276 276 277 277 277 277 277 278 278 279 279 279 280
262 263 263 263 264 266 268 270 271 272 272 271 267 265 267 266 266 266 267 268 268 269 270 271 273 274 274 275 275 276 276 276 276 276 277 277 277 277 278 278 278 279 278
262 262 264 264 264 267 268 270 273 274 275 274 271 271 268 266 269 268 269 269 269 270 271 271 273 275 275 275 276 277 277 277 276 278 278 278 277 277 279 279 278 279 279
265 266 265 266 269 270 270 270 274 275 275 275 273 273 270 269 272 272 272 272 272 271 272 272 273 274 275 276 278 279 278 278 277 279 279 279 278 278 280 279 279 279 279
266 268 268 268 270 271 273 273 275 275 274 275 273 273 271 272 275 274 273 274 273 272 273 274 275 275 276 278 278 278 278 278 279 280 280 279 279 279 278 279 279 279 280
265 266 269 269 271 272 274 273 274 275 277 277 276 277 276 274 274 275 276 277 277 277 277 278 278 279 279 280 279 279 278 278 280 280 281 280 280 281 280 281 281 280 279
268 267 270 270 274 275 274 275 274 276 276 276 277 279 278 277 278 280 282 279 278 279 278 279 279 279 279 278 279 279 280 281 282 282 282 282 282 282 283 282 281 280 279
270 273 271 272 276 276 275 275 275 276 277 277 278 279 280 279 280 282 283 282 281 280 280 280 279 280 280 280 281 281 281 282 283 283 283 283 283 284 285 284 282 281 279
275 272 270 271 273 276 275 275 277 278 278 279 280 281 282 282 283 282 283 283 283 283 283 281 279 281 282 283 283 283 283 284 285 285 284 285 285 285 284 284 284 282 281
276 274 274 272 273 276 276 276 276 277 279 281 282 282 283 282 283 284 285 286 286 285 285 284 283 283 284 285 286 286 286 286 287 287 286 287 286 285 285 284 283 283 283
276 274 274 274 277 279 279 281 282 281 281 282 283 284 285 286 286 286 287 289 289 288 287 288 287 285 285 285 287 287 287 287 288 289 289 288 288 288 287 287 286 286 285